QPF
0.00 0.00 0.00 0.00 0.00 0.00 0.00 0.00 0.00 0.00 0.00 0.00 0.00 0.00 0.00 0.00 0.00 0.00 0.00 0.00 0.00 0.00 0.00 0.00 0.00 0.00 0.00 0.00 0.00 0.00 0.00 0.00 0.00 0.00 0.00 0.00 0.00 0.00 0.00 0.00 0.00 0.00 0.00 0.00 0.00
0.00 0.00 0.00 0.00 0.00 0.00 0.00 0.00 0.00 0.00 0.00 0.00 0.00 0.00 0.00 0.00 0.00 0.00 0.00 0.00 0.00 0.00 0.00 0.00 0.00 0.00 0.00 0.00 0.00 0.00 0.00 0.00 0.00 0.00 0.00 0.00 0.00 0.00 0.00 0.00 0.00 0.00 0.00 0.00 0.00
0.00 0.00 0.00 0.00 0.00 0.00 0.00 0.00 0.00 0.00 0.00 0.00 0.00 0.00 0.00 0.00 0.00 0.00 0.00 0.00 0.00 0.00 0.00 0.00 0.00 0.00 0.00 0.00 0.00 0.00 0.00 0.00 0.00 0.00 0.00 0.00 0.00 0.00 0.00 0.00 0.00 0.00 0.00 0.00 0.00
0.00 0.00 0.00 0.00 0.00 0.00 0.00 0.00 0.00 0.00 0.00 0.00 0.00 0.00 0.00 0.00 0.00 0.00 0.00 0.00 0.00 0.00 0.00 0.00 0.00 0.00 0.00 0.00 0.00 0.00 0.00 0.00 0.00 0.00 0.00 0.00 0.00 0.00 0.00 0.00 0.00 0.00 0.00 0.00 0.00
0.00 0.00 0.00 0.00 0.00 0.00 0.00 0.00 0.00 0.00 0.00 0.00 0.00 0.00 0.00 0.00 0.00 0.00 0.00 0.00 0.00 0.00 0.00 0.00 0.00 0.00 0.00 0.00 0.00 0.00 0.00 0.00 0.00 0.00 0.00 0.00 0.00 0.00 0.00 0.00 0.00 0.00 0.00 0.00 0.00
0.00 0.00 0.00 0.00 0.00 0.00 0.00 0.00 0.00 0.00 0.00 0.00 0.00 0.00 0.00 0.00 0.00 0.00 0.00 0.00 0.00 0.00 0.00 0.00 0.00 0.00 0.00 0.00 0.00 0.00 0.00 0.00 0.00 0.00 0.00 0.00 0.00 0.00 0.00 0.00 0.00 0.00 0.00 0.00 0.00
0.00 0.00 0.00 0.00 0.00 0.00 0.00 0.00 0.00 0.00 0.00 0.00 0.00 0.00 0.00 0.00 0.00 0.00 0.00 0.00 0.00 0.00 0.00 0.00 0.00 0.00 0.00 0.00 0.00 0.00 0.00 0.00 0.00 0.00 0.00 0.00 0.00 0.00 0.00 0.00 0.00 0.00 0.00 0.00 0.00
0.00 0.00 0.00 0.00 0.00 0.00 0.00 0.00 0.00 0.00 0.00 0.00 0.00 0.00 0.00 0.00 0.00 0.00 0.00 0.00 0.00 0.00 0.00 0.00 0.00 0.00 0.00 0.00 0.00 0.00 0.00 0.00 0.00 0.00 0.00 0.00 0.00 0.00 0.00 0.00 0.00 0.00 0.00 0.00 0.00
0.00 0.00 0.00 0.00 0.00 0.00 0.00 0.00 0.00 0.00 0.00 0.00 0.00 0.00 0.00 0.00 0.00 0.00 0.00 0.00 0.00 0.00 0.00 0.00 0.00 0.00 0.00 0.00 0.00 0.00 0.00 0.00 0.00 0.00 0.00 0.00 0.00 0.00 0.00 0.00 0.00 0.00 0.00 0.00 0.00
0.00 0.00 0.00 0.00 0.00 0.00 0.00 0.00 0.00 0.00 0.00 0.00 0.00 0.00 0.00 0.00 0.00 0.00 0.00 0.00 0.00 0.00 0.00 0.00 0.00 0.00 0.00 0.00 0.00 0.00 0.00 0.00 0.00 0.00 0.00 0.00 0.00 0.00 0.00 0.00 0.00 0.00 0.00 0.00 0.00
0.00 0.00 0.00 0.00 0.00 0.00 0.00 0.00 0.00 0.00 0.00 0.00 0.00 0.00 0.00 0.00 0.00 0.00 0.00 0.00 0.00 0.00 0.00 0.00 0.00 0.00 0.00 0.00 0.00 0.00 0.00 0.00 0.00 0.00 0.00 0.00 0.00 0.00 0.00 0.00 0.00 0.00 0.00 0.00 0.00
0.00 0.00 0.00 0.00 0.00 0.00 0.00 0.00 0.00 0.00 0.00 0.00 0.00 0.00 0.00 0.00 0.00 0.00 0.00 0.00 0.00 0.00 0.00 0.00 0.00 0.00 0.00 0.00 0.00 0.00 0.00 0.00 0.00 0.00 0.00 0.00 0.00 0.00 0.00 0.00 0.00 0.00 0.00 0.00 0.00
0.00 0.00 0.00 0.00 0.00 0.00 0.00 0.00 0.00 0.00 0.00 0.00 0.00 0.00 0.00 0.00 0.00 0.00 0.00 0.00 0.00 0.00 0.00 0.00 0.00 0.00 0.00 0.00 0.00 0.00 0.00 0.00 0.00 0.00 0.00 0.00 0.00 0.00 0.00 0.00 0.00 0.00 0.00 0.00 0.00
0.00 0.00 0.00 0.00 0.00 0.00 0.00 0.00 0.00 0.00 0.00 0.00 0.00 0.00 0.00 0.00 0.00 0.00 0.00 0.00 0.00 0.00 0.00 0.00 0.00 0.00 0.00 0.00 0.00 0.00 0.00 0.00 0.00 0.00 0.00 0.00 0.00 0.00 0.00 0.00 0.00 0.00 0.00 0.00 0.00
0.00 0.00 0.00 0.00 0.00 0.00 0.00 0.00 0.00 0.00 0.00 0.00 0.00 0.00 0.00 0.00 0.00 0.00 0.00 0.00 0.00 0.00 0.00 0.00 0.00 0.00 0.00 0.00 0.00 0.00 0.00 0.00 0.00 0.00 0.00 0.00 0.00 0.00 0.00 0.00 0.00 0.00 0.00 0.00 0.00
0.00 0.00 0.00 0.00 0.00 0.00 0.00 0.00 0.00 0.00 0.00 0.00 0.00 0.00 0.00 0.00 0.00 0.00 0.00 0.00 0.00 0.00 0.00 0.00 0.00 0.00 0.00 0.00 0.00 0.00 0.00 0.00 0.00 0.00 0.00 0.00 0.00 0.00 0.00 0.00 0.00 0.00 0.00 0.00 0.00
0.00 0.00 0.00 0.00 0.00 0.00 0.00 0.00 0.00 0.00 0.00 0.00 0.00 0.00 0.00 0.00 0.00 0.00 0.00 0.00 0.00 0.00 0.00 0.00 0.00 0.00 0.00 0.00 0.00 0.00 0.00 0.00 0.00 0.00 0.00 0.00 0.00 0.00 0.00 0.00 0.00 0.00 0.00 0.00 0.00
0.00 0.00 0.00 0.00 0.00 0.00 0.00 0.00 0.00 0.00 0.00 0.00 0.00 0.00 0.00 0.00 0.00 0.00 0.00 0.00 0.00 0.00 0.00 0.00 0.00 0.00 0.00 0.00 0.00 0.00 0.00 0.00 0.00 0.00 0.00 0.00 0.00 0.00 0.00 0.00 0.00 0.00 0.00 0.00 0.00
0.00 0.00 0.00 0.00 0.00 0.00 0.00 0.00 0.00 0.00 0.00 0.00 0.00 0.00 0.00 0.00 0.00 0.00 0.00 0.00 0.00 0.00 0.00 0.00 0.00 0.00 0.00 0.00 0.00 0.00 0.00 0.00 0.00 0.00 0.00 0.00 0.00 0.00 0.00 0.00 0.00 0.00 0.00 0.00 0.00
0.01 0.01 0.00 0.00 0.00 0.00 0.01 0.00 0.00 0.00 0.00 0.00 0.00 0.00 0.00 0.00 0.00 0.00 0.00 0.00 0.00 0.00 0.00 0.00 0.00 0.00 0.00 0.00 0.00 0.00 0.00 0.00 0.00 0.00 0.00 0.00 0.00 0.00 0.00 0.00 0.00 0.00 0.00 0.00 0.00
0.03 0.01 0.00 0.00 0.01 0.02 0.00 0.00 0.00 0.00 0.00 0.00 0.00 0.00 0.00 0.00 0.00 0.00 0.00 0.00 0.00 0.00 0.00 0.00 0.00 0.00 0.00 0.00 0.00 0.00 0.00 0.00 0.00 0.00 0.00 0.00 0.00 0.00 0.00 0.00 0.00 0.00 0.00 0.00 0.00
0.01 0.01 0.00 0.00 0.00 0.00 0.00 0.00 0.00 0.00 0.00 0.00 0.00 0.00 0.00 0.00 0.00 0.00 0.00 0.00 0.00 0.00 0.00 0.00 0.00 0.00 0.00 0.00 0.00 0.00 0.00 0.00 0.00 0.00 0.00 0.00 0.00 0.00 0.00 0.00 0.00 0.00 0.00 0.00 0.00
0.00 0.00 0.00 0.00 0.00 0.00 0.00 0.00 0.00 0.00 0.00 0.00 0.00 0.00 0.00 0.00 0.00 0.00 0.00 0.00 0.00 0.00 0.00 0.00 0.00 0.00 0.00 0.00 0.00 0.00 0.00 0.00 0.00 0.00 0.00 0.00 0.00 0.00 0.00 0.00 0.00 0.00 0.00 0.00 0.00
0.00 0.00 0.00 0.00 0.00 0.00 0.00 0.00 0.00 0.00 0.00 0.00 0.00 0.00 0.00 0.00 0.00 0.00 0.00 0.00 0.00 0.00 0.00 0.00 0.00 0.00 0.00 0.00 0.00 0.00 0.00 0.00 0.00 0.00 0.00 0.00 0.00 0.00 0.00 0.00 0.00 0.00 0.00 0.00 0.00
0.00 0.00 0.00 0.00 0.00 0.00 0.00 0.00 0.00 0.00 0.00 0.00 0.00 0.00 0.00 0.00 0.00 0.00 0.00 0.00 0.00 0.00 0.00 0.00 0.00 0.00 0.00 0.00 0.00 0.00 0.00 0.00 0.00 0.00 0.00 0.00 0.00 0.00 0.00 0.00 0.00 0.00 0.00 0.00 0.00
0.00 0.00 0.00 0.00 0.00 0.00 0.00 0.00 0.00 0.00 0.00 0.00 0.00 0.00 0.00 0.00 0.00 0.00 0.00 0.00 0.00 0.00 0.00 0.00 0.00 0.00 0.00 0.00 0.00 0.00 0.00 0.00 0.00 0.00 0.00 0.00 0.00 0.00 0.00 0.00 0.00 0.00 0.00 0.00 0.00
0.00 0.00 0.00 0.00 0.00 0.00 0.00 0.00 0.00 0.00 0.00 0.00 0.00 0.00 0.00 0.00 0.00 0.00 0.00 0.00 0.00 0.00 0.00 0.00 0.00 0.00 0.00 0.00 0.00 0.00 0.00 0.00 0.00 0.00 0.00 0.00 0.00 0.00 0.00 0.00 0.00 0.00 0.00 0.00 0.00
MSLP
1017.16 1017.13 1016.88 1016.95 1016.52 1016.56 1016.29 1015.99 1015.65 1015.44 1014.85 1014.47 1014.01 1013.11 1012.55 1011.92 1010.61 1010.41 1010.43 1009.88 1009.55 1009.52 1009.49 1009.37 1009.06 1009.16 1009.44 1009.91 1010.31 1010.99 1011.85 1012.10 1010.88 1009.70 1008.41 1007.04 1006.44 1005.68 1005.70 1006.23 1006.73 1006.96 1007.25 1007.33 1007.97
1017.25 1017.05 1017.02 1016.94 1016.57 1016.41 1016.25 1015.91 1015.58 1015.30 1014.82 1014.39 1013.95 1013.09 1012.39 1011.98 1011.32 1010.32 1009.57 1009.60 1009.59 1009.52 1009.35 1009.47 1009.39 1009.30 1009.59 1009.93 1010.29 1010.88 1011.65 1010.93 1009.99 1009.14 1008.36 1007.46 1006.92 1006.19 1006.11 1006.56 1006.71 1007.46 1007.72 1007.65 1008.34
1017.09 1017.03 1016.93 1016.90 1016.55 1016.40 1016.18 1015.95 1015.55 1015.13 1014.76 1014.28 1013.92 1013.22 1012.10 1011.92 1011.39 1010.21 1009.26 1009.43 1009.65 1009.68 1009.66 1009.53 1009.50 1009.51 1009.74 1009.82 1010.09 1010.45 1010.47 1009.73 1008.83 1008.44 1008.06 1007.49 1006.86 1006.25 1006.24 1006.54 1006.56 1007.18 1007.92 1008.32 1008.87
1016.90 1016.83 1017.01 1016.79 1016.70 1016.48 1016.13 1015.83 1015.53 1015.01 1014.45 1014.39 1013.79 1013.23 1012.12 1011.74 1011.14 1009.69 1009.23 1009.43 1009.68 1009.72 1009.70 1009.47 1009.48 1009.63 1009.85 1009.90 1009.74 1010.04 1009.45 1009.29 1008.54 1007.88 1007.65 1007.26 1006.60 1006.37 1006.40 1006.00 1005.91 1006.51 1007.52 1008.10 1008.74
1016.84 1016.60 1016.76 1016.57 1016.53 1016.35 1015.98 1015.72 1015.48 1014.92 1014.54 1014.24 1013.73 1013.28 1012.26 1011.73 1010.37 1009.17 1009.25 1009.47 1009.63 1009.69 1009.72 1009.62 1009.55 1009.63 1009.78 1009.90 1009.77 1009.65 1009.22 1008.81 1008.12 1007.88 1007.50 1007.05 1006.70 1006.48 1006.19 1005.84 1006.10 1006.76 1007.67 1007.91 1008.22
1016.73 1016.57 1016.50 1016.32 1016.18 1016.23 1015.91 1015.42 1015.22 1014.67 1014.41 1014.05 1013.68 1013.43 1012.97 1011.58 1009.35 1009.24 1009.32 1009.42 1009.44 1009.65 1009.59 1009.53 1009.53 1009.45 1009.67 1009.74 1009.85 1009.26 1009.02 1008.66 1007.89 1007.36 1007.04 1006.80 1006.57 1006.38 1005.71 1005.92 1006.55 1007.03 1007.30 1007.62 1007.94
1016.39 1016.43 1016.30 1016.27 1015.99 1015.83 1015.65 1015.11 1014.80 1014.44 1014.11 1013.77 1013.66 1013.54 1012.84 1010.49 1009.27 1009.48 1009.58 1009.29 1009.09 1009.42 1009.49 1009.27 1009.35 1009.59 1009.91 1009.78 1009.59 1009.41 1009.33 1008.40 1007.67 1007.14 1006.68 1006.24 1006.33 1006.20 1005.45 1005.90 1006.42 1006.92 1007.12 1007.25 1007.47
1016.09 1016.25 1016.13 1016.10 1015.87 1015.55 1015.35 1014.77 1014.15 1014.17 1013.71 1013.46 1013.41 1013.41 1011.88 1009.35 1009.31 1009.25 1009.22 1009.16 1009.00 1009.04 1009.27 1009.15 1009.25 1009.66 1010.05 1010.07 1009.83 1009.86 1009.70 1009.07 1007.54 1007.28 1006.82 1006.61 1006.38 1005.68 1005.50 1006.04 1006.31 1006.60 1007.01 1007.46 1007.65
1015.78 1015.93 1016.03 1016.16 1015.87 1015.45 1015.03 1014.31 1013.43 1013.48 1013.28 1013.26 1013.44 1013.01 1011.10 1009.19 1009.13 1008.80 1008.87 1009.13 1009.06 1009.11 1009.11 1009.09 1009.38 1010.21 1010.49 1010.84 1011.04 1010.73 1010.39 1009.60 1008.54 1007.64 1007.36 1007.36 1006.83 1006.01 1005.88 1006.32 1006.47 1006.64 1007.34 1007.73 1007.92
1015.55 1015.72 1015.85 1016.17 1015.81 1015.48 1014.92 1013.68 1012.58 1013.39 1013.24 1013.12 1012.98 1013.04 1010.80 1009.57 1009.13 1008.99 1008.84 1008.99 1009.33 1009.48 1009.66 1009.80 1010.42 1010.97 1011.62 1011.77 1011.69 1011.15 1010.68 1009.91 1009.36 1008.27 1007.66 1007.63 1007.50 1007.07 1006.82 1006.96 1006.94 1007.12 1007.48 1007.67 1007.83
1015.13 1015.41 1015.73 1016.02 1016.00 1015.53 1015.16 1013.81 1013.37 1013.46 1013.05 1012.47 1012.13 1011.41 1010.27 1009.60 1009.26 1009.09 1008.87 1009.12 1009.53 1010.04 1010.62 1010.84 1011.46 1011.34 1011.40 1011.40 1011.14 1011.08 1010.71 1010.25 1009.30 1008.68 1008.36 1008.32 1008.19 1007.64 1006.80 1007.04 1007.03 1006.87 1007.23 1007.66 1007.80
1014.75 1015.10 1015.39 1015.78 1015.96 1015.77 1015.94 1015.08 1014.34 1014.70 1013.45 1011.90 1010.84 1010.63 1010.09 1009.89 1009.79 1009.15 1008.99 1009.60 1010.09 1010.69 1011.05 1011.56 1011.32 1010.88 1011.10 1010.94 1010.87 1010.67 1010.38 1009.99 1009.33 1008.98 1008.89 1008.69 1008.55 1007.16 1006.83 1006.32 1006.06 1006.19 1006.88 1007.08 1007.76
1014.51 1014.80 1015.20 1015.49 1015.94 1015.84 1015.91 1014.78 1013.67 1014.24 1014.27 1011.10 1010.10 1009.75 1009.15 1009.55 1009.55 1009.03 1008.98 1009.45 1010.20 1011.03 1011.39 1011.45 1010.55 1010.04 1010.44 1010.45 1010.33 1010.07 1009.88 1009.79 1009.81 1009.64 1009.30 1009.32 1008.64 1007.62 1006.64 1006.32 1006.19 1006.40 1007.01 1007.52 1008.31
1014.18 1014.62 1014.96 1015.46 1016.13 1015.76 1015.42 1014.35 1013.75 1014.22 1014.54 1010.96 1009.32 1008.52 1008.73 1008.86 1009.09 1008.61 1008.77 1009.32 1009.96 1010.64 1011.34 1011.31 1010.21 1010.05 1009.98 1009.91 1009.85 1009.79 1009.40 1009.53 1009.94 1010.32 1010.53 1010.13 1009.70 1008.46 1006.98 1006.93 1006.52 1007.03 1007.38 1008.10 1008.88
1013.85 1014.38 1014.79 1015.10 1015.52 1015.42 1014.93 1014.33 1013.96 1014.30 1013.96 1009.89 1008.69 1007.97 1008.34 1008.71 1008.59 1008.71 1008.55 1008.94 1009.63 1010.25 1011.02 1010.36 1009.67 1009.58 1009.52 1009.05 1009.16 1009.25 1009.10 1009.77 1010.35 1011.12 1011.53 1011.22 1011.18 1008.11 1007.58 1007.08 1006.95 1007.75 1008.47 1009.02 1009.66
1013.24 1014.25 1014.77 1015.37 1015.62 1014.68 1014.37 1014.46 1014.60 1015.39 1013.45 1010.06 1008.68 1008.46 1008.92 1008.94 1008.59 1008.72 1008.85 1008.95 1009.30 1009.81 1010.09 1009.90 1009.25 1008.88 1008.39 1008.29 1008.63 1009.02 1009.59 1010.31 1011.39 1011.98 1012.13 1010.80 1010.71 1009.07 1007.88 1007.09 1007.40 1007.99 1009.04 1009.60 1010.26
1012.52 1013.66 1014.39 1014.21 1014.81 1014.19 1014.44 1015.06 1015.84 1014.94 1012.30 1010.11 1009.07 1008.94 1009.07 1009.14 1009.00 1008.79 1009.23 1009.57 1009.60 1010.05 1010.00 1009.49 1008.93 1008.38 1008.03 1008.30 1008.56 1009.23 1010.56 1011.75 1012.39 1012.86 1011.98 1010.79 1010.52 1008.43 1007.02 1006.80 1007.05 1007.83 1009.06 1009.91 1010.44
1012.08 1013.17 1013.72 1013.47 1014.16 1014.00 1014.88 1015.56 1014.98 1013.27 1011.79 1010.03 1009.13 1009.21 1009.31 1009.11 1009.01 1008.96 1009.31 1009.75 1009.82 1009.98 1010.30 1009.99 1009.09 1008.07 1007.83 1008.01 1008.39 1009.26 1010.29 1011.73 1012.25 1012.96 1012.08 1011.09 1009.44 1007.44 1006.86 1006.82 1006.82 1007.73 1009.05 1009.88 1010.45
1011.66 1012.78 1012.86 1012.89 1013.92 1014.24 1014.92 1014.10 1012.08 1012.52 1011.55 1010.60 1009.73 1009.58 1009.49 1009.04 1008.97 1009.10 1009.28 1009.36 1009.04 1009.46 1010.08 1009.87 1009.25 1007.94 1007.61 1007.73 1008.12 1009.48 1010.26 1010.67 1011.95 1012.69 1012.48 1010.92 1008.72 1007.25 1007.03 1007.19 1007.61 1008.07 1009.10 1009.78 1010.13
1010.82 1011.43 1011.23 1011.72 1013.37 1014.54 1014.41 1011.76 1011.59 1011.03 1010.48 1010.27 1009.85 1009.33 1009.26 1009.23 1009.31 1009.10 1009.02 1008.37 1008.63 1008.58 1008.68 1009.42 1009.62 1008.66 1007.97 1007.86 1008.21 1008.78 1009.73 1011.08 1012.36 1012.95 1012.33 1010.37 1009.09 1007.91 1007.54 1007.51 1008.12 1008.64 1008.91 1009.58 1009.89
1009.60 1009.72 1008.76 1010.70 1012.72 1013.33 1010.85 1010.53 1010.71 1010.41 1010.09 1010.14 1009.68 1009.49 1009.30 1009.31 1009.20 1008.97 1008.63 1008.15 1008.28 1008.90 1009.05 1009.46 1009.83 1009.75 1009.23 1008.48 1008.57 1009.21 1009.62 1010.60 1011.69 1012.64 1012.44 1010.98 1008.10 1006.82 1006.77 1006.96 1007.45 1007.89 1008.40 1008.85 1009.21
1007.44 1007.36 1007.69 1009.16 1010.54 1009.57 1007.95 1008.94 1009.31 1009.68 1009.72 1009.66 1009.41 1009.21 1009.07 1008.88 1009.14 1009.01 1008.59 1008.01 1008.27 1008.82 1009.77 1010.04 1010.36 1010.42 1009.52 1008.83 1008.82 1009.18 1009.69 1010.42 1011.38 1011.96 1011.99 1011.59 1004.74 1005.69 1006.12 1006.25 1006.84 1007.25 1007.90 1008.43 1008.95
1006.37 1006.66 1006.91 1007.43 1006.58 1006.58 1007.04 1007.73 1008.58 1008.72 1008.85 1009.15 1009.10 1008.76 1008.62 1008.70 1009.09 1008.54 1008.20 1008.08 1008.33 1008.95 1009.35 1010.17 1010.32 1010.83 1010.42 1010.06 1009.24 1009.35 1009.54 1009.78 1010.63 1011.19 1010.87 1011.42 1006.03 1006.12 1005.80 1006.23 1006.55 1007.33 1007.65 1007.94 1008.34
1006.04 1006.68 1006.54 1005.47 1005.12 1005.46 1006.20 1006.61 1007.01 1007.40 1007.66 1007.85 1007.87 1008.36 1008.51 1008.43 1008.16 1007.87 1008.42 1008.63 1008.85 1009.14 1008.90 1009.13 1009.61 1009.43 1008.90 1009.14 1009.19 1009.61 1009.55 1009.67 1010.05 1010.73 1010.17 1007.87 1006.53 1006.93 1006.65 1006.35 1006.80 1007.25 1007.45 1007.60 1007.96
1005.09 1004.94 1004.09 1004.63 1003.97 1004.34 1005.29 1005.12 1005.73 1006.00 1006.37 1006.68 1006.99 1006.80 1007.33 1007.78 1007.68 1007.02 1008.20 1009.44 1009.64 1009.70 1009.73 1009.82 1009.68 1009.89 1008.94 1008.96 1009.17 1009.07 1008.51 1009.03 1009.29 1009.21 1009.43 1006.32 1006.71 1006.48 1006.02 1006.30 1006.44 1006.46 1006.89 1007.50 1007.78
1005.36 1005.14 1004.64 1003.96 1003.87 1003.87 1003.89 1003.01 1003.51 1004.75 1005.27 1005.35 1005.35 1006.24 1006.81 1005.93 1005.87 1006.56 1007.63 1008.44 1008.94 1010.05 1010.00 1010.15 1009.90 1009.99 1008.87 1009.24 1009.07 1008.32 1006.52 1008.21 1007.80 1007.49 1007.27 1006.58 1003.93 1005.30 1004.53 1005.89 1005.87 1006.28 1006.84 1007.15 1007.36
1004.77 1004.88 1004.38 1003.28 1002.81 1002.68 1001.95 1001.32 1001.93 1004.34 1003.71 1004.18 1004.88 1005.81 1005.36 1003.86 1005.83 1005.63 1006.17 1006.58 1007.50 1008.32 1009.38 1009.96 1010.11 1010.21 1008.40 1009.08 1008.89 1007.30 1004.56 1005.65 1006.02 1005.60 1005.33 1004.72 1001.89 1002.85 1004.24 1004.44 1004.72 1005.38 1005.94 1006.35 1006.90
Thickness
5716 5717 5720 5719 5722 5720 5721 5723 5724 5724 5726 5728 5730 5735 5739 5743 5753 5753 5745 5752 5755 5757 5758 5756 5758 5755 5750 5742 5741 5733 5702 5691 5714 5724 5735 5757 5756 5769 5771 5761 5764 5768 5768 5774 5773
5712 5715 5715 5716 5720 5720 5720 5722 5722 5723 5725 5726 5728 5734 5738 5740 5744 5746 5755 5753 5754 5755 5754 5747 5745 5748 5737 5738 5735 5719 5696 5711 5728 5738 5740 5747 5754 5759 5758 5751 5761 5756 5763 5772 5768
5709 5710 5712 5712 5716 5718 5719 5719 5721 5721 5724 5725 5726 5730 5740 5739 5738 5740 5756 5753 5751 5751 5750 5750 5748 5743 5734 5736 5733 5725 5709 5730 5740 5743 5748 5744 5750 5763 5756 5749 5761 5757 5755 5760 5759
5705 5707 5706 5711 5711 5713 5716 5717 5719 5721 5724 5722 5725 5727 5737 5738 5715 5746 5754 5751 5748 5747 5746 5745 5741 5732 5726 5724 5735 5722 5733 5737 5742 5751 5750 5746 5757 5755 5753 5759 5774 5770 5764 5762 5758
5700 5704 5704 5707 5708 5709 5712 5714 5716 5720 5721 5721 5722 5725 5732 5722 5727 5751 5751 5748 5745 5742 5737 5735 5731 5728 5720 5723 5727 5721 5732 5740 5746 5745 5747 5749 5748 5748 5752 5765 5770 5766 5762 5761 5762
5694 5698 5701 5704 5705 5705 5708 5712 5714 5718 5719 5720 5721 5720 5720 5710 5747 5746 5746 5744 5741 5736 5733 5734 5729 5732 5724 5723 5721 5732 5731 5730 5741 5745 5747 5748 5747 5750 5756 5765 5760 5759 5758 5760 5760
5690 5692 5696 5698 5702 5704 5705 5710 5712 5716 5718 5719 5717 5717 5711 5719 5745 5741 5740 5739 5741 5734 5727 5734 5733 5725 5723 5716 5730 5729 5721 5730 5739 5744 5743 5749 5740 5740 5759 5761 5754 5752 5755 5757 5758
5686 5686 5690 5692 5697 5701 5703 5708 5712 5714 5716 5717 5715 5713 5709 5742 5741 5739 5738 5734 5738 5736 5731 5733 5733 5722 5717 5720 5717 5714 5714 5703 5734 5739 5742 5742 5719 5745 5757 5752 5748 5747 5748 5749 5749
5681 5682 5684 5685 5690 5695 5699 5706 5712 5713 5714 5713 5711 5709 5708 5739 5731 5738 5734 5724 5728 5728 5728 5729 5725 5708 5707 5695 5685 5694 5686 5698 5709 5731 5731 5729 5719 5743 5751 5746 5747 5746 5741 5739 5742
5675 5676 5677 5677 5682 5687 5692 5703 5712 5708 5709 5708 5708 5700 5715 5716 5727 5730 5731 5725 5716 5714 5710 5708 5696 5688 5680 5675 5665 5682 5685 5692 5691 5713 5720 5717 5717 5726 5734 5736 5736 5736 5735 5734 5739
5670 5670 5671 5670 5673 5679 5684 5693 5692 5692 5702 5704 5703 5706 5714 5721 5724 5719 5723 5715 5710 5701 5682 5691 5678 5673 5676 5683 5690 5687 5685 5685 5693 5710 5713 5712 5710 5719 5729 5726 5724 5732 5736 5734 5737
5664 5665 5666 5664 5664 5670 5669 5673 5679 5675 5678 5701 5706 5707 5712 5714 5699 5709 5718 5698 5692 5677 5684 5676 5667 5683 5688 5688 5684 5683 5684 5682 5694 5704 5705 5700 5701 5723 5726 5733 5740 5744 5735 5734 5732
5656 5658 5658 5659 5655 5660 5661 5669 5679 5672 5658 5701 5705 5706 5712 5709 5695 5699 5708 5698 5686 5673 5671 5665 5684 5696 5686 5684 5684 5686 5683 5683 5684 5689 5694 5691 5692 5712 5728 5733 5738 5738 5733 5732 5723
5648 5649 5651 5649 5646 5651 5654 5667 5668 5663 5629 5683 5702 5709 5709 5707 5695 5710 5709 5697 5686 5671 5668 5667 5686 5688 5687 5683 5683 5674 5691 5691 5685 5676 5664 5686 5655 5692 5715 5715 5727 5718 5722 5717 5713
5640 5641 5641 5642 5642 5645 5653 5657 5656 5651 5591 5689 5699 5717 5707 5698 5702 5698 5708 5697 5681 5680 5670 5671 5685 5678 5676 5681 5690 5679 5696 5688 5683 5668 5662 5665 5646 5687 5705 5710 5717 5709 5704 5701 5697
5632 5629 5630 5631 5632 5640 5645 5645 5642 5604 5588 5664 5691 5688 5684 5689 5694 5694 5693 5697 5691 5680 5676 5672 5690 5688 5686 5693 5690 5692 5685 5672 5656 5649 5633 5666 5652 5664 5689 5706 5707 5703 5695 5691 5685
5626 5622 5621 5628 5624 5631 5634 5628 5601 5578 5632 5661 5676 5681 5676 5675 5679 5680 5674 5669 5663 5656 5660 5671 5678 5689 5693 5682 5686 5676 5657 5629 5627 5625 5631 5666 5651 5670 5702 5704 5706 5696 5688 5681 5676
5616 5613 5614 5622 5617 5622 5619 5609 5588 5601 5626 5664 5678 5672 5663 5672 5674 5672 5664 5657 5663 5662 5647 5645 5647 5680 5687 5679 5668 5662 5657 5628 5623 5618 5633 5655 5647 5674 5697 5696 5701 5694 5680 5672 5665
5603 5600 5605 5616 5607 5606 5603 5595 5601 5610 5628 5648 5662 5654 5654 5668 5669 5665 5656 5654 5664 5658 5643 5638 5647 5683 5685 5682 5676 5656 5644 5656 5634 5625 5609 5629 5659 5683 5687 5685 5681 5676 5670 5662 5657
5596 5596 5604 5611 5595 5587 5586 5602 5604 5620 5637 5645 5639 5649 5641 5651 5652 5653 5650 5667 5666 5665 5666 5653 5633 5667 5674 5678 5672 5661 5656 5629 5617 5609 5606 5628 5635 5645 5666 5671 5666 5660 5659 5652 5649
5589 5590 5609 5604 5584 5579 5592 5600 5611 5617 5632 5627 5635 5636 5635 5639 5647 5643 5648 5663 5664 5660 5657 5649 5640 5640 5652 5653 5648 5645 5638 5637 5627 5608 5602 5605 5624 5656 5667 5667 5661 5660 5654 5648 5641
5592 5596 5601 5596 5584 5598 5610 5611 5617 5611 5619 5618 5623 5629 5627 5635 5635 5635 5639 5656 5657 5648 5640 5639 5621 5612 5633 5652 5652 5649 5636 5630 5613 5608 5594 5593 5657 5673 5665 5663 5656 5653 5644 5635 5630
5590 5591 5593 5591 5597 5607 5615 5609 5607 5603 5609 5607 5610 5619 5630 5626 5616 5626 5639 5653 5645 5641 5631 5629 5615 5599 5614 5623 5636 5629 5629 5629 5619 5604 5606 5591 5639 5652 5653 5654 5649 5636 5633 5630 5625
5578 5572 5574 5588 5603 5609 5605 5600 5601 5610 5609 5612 5612 5609 5609 5609 5617 5622 5622 5631 5630 5631 5636 5634 5615 5616 5623 5624 5621 5616 5619 5617 5610 5576 5599 5620 5636 5638 5633 5638 5635 5624 5622 5620 5616
5562 5563 5584 5580 5595 5602 5603 5605 5598 5601 5606 5610 5604 5612 5610 5604 5613 5621 5619 5608 5611 5614 5615 5613 5605 5605 5621 5617 5612 5611 5617 5609 5603 5607 5587 5632 5616 5621 5631 5624 5620 5620 5613 5607 5604
5538 5552 5561 5578 5591 5590 5594 5611 5612 5601 5595 5599 5605 5603 5601 5612 5621 5617 5618 5608 5610 5594 5598 5594 5597 5595 5604 5598 5600 5602 5623 5600 5607 5613 5607 5612 5627 5633 5637 5619 5616 5611 5604 5601 5596
5529 5536 5549 5573 5578 5581 5598 5618 5616 5596 5604 5606 5599 5593 5599 5623 5616 5622 5618 5618 5610 5603 5588 5583 5583 5576 5594 5593 5585 5588 5621 5616 5613 5616 5614 5604 5641 5641 5616 5616 5615 5609 5601 5597 5585